Regional Weather Roundup
Issued by NWS Goodland, KS

Home | Current Version | Previous Version | Graphics & Text | Print | Product List | Glossary On
Versions: 1 2 3 4 5 6 7 8 9 10 11 12 13 14 15 16 17 18 19 20 21 22 23 24 25 26 27 28 29 30 31 32 33 34 35 36 37 38 39 40 41 42 43 44 45 46 47 48 49 50
000
ASUS43 KGLD 260108
RWRGLD

GOODLAND FORECAST AREA HOURLY WEATHER ROUNDUP
NATIONAL WEATHER SERVICE GOODLAND KS
600 PM MST SAT FEB 25 2017

...OFFICIAL OBSERVATIONS...

CITY           SKY/WX    TMP DP  RH WIND       PRES   REMARKS
GOODLAND KS    CLEAR     22   4  46 E8        29.84F
HILL CITY KS   CLEAR     33  14  45 N6        29.91S
IMPERIAL NEB   CLEAR     30  15  53 NW3       29.86F
MCCOOK NEB     CLEAR     30  12  47 NW8       29.90F
AKRON CO       PTCLDY    26  19  74 SE7       29.81R
BURLINGTON CO  CLEAR     27   6  41 E12       29.81F WCI  17
LIMON CO       MOCLDY    30   6  36 N18       29.79R WCI  18
$$

...UNOFFICIAL OBSERVATIONS...

CITY           SKY/WX    TMP DP  RH WIND       PRES   REMARKS
LENORA KS        N/A     33  32  96 N6          N/A
SHARON SPRINGS   N/A     31   7  36 E5          N/A
TRENTON NEB      N/A     29  32 100 CALM        N/A
KIT CARSON CO    N/A     29   1  29 CALM        N/A
YUMA CO        FAIR      28  21  74 CALM      29.82F
$$



USA.gov is the U.S. government's official web portal to all federal, state and local government web resources and services.